GW0718 Weather Reports


Display with metric or nautical units.
time (UTC)temp
F
wind
direction
speed
MPH
gust
MPH
rain 1hr
in
rain 24hr
in
rain mn
in
humidity
%
barometer
mb
20260504035429 55 11 16.0 23.0 0.00 0.00 0.00 43 1009.0
20260504034926 56 339 11.0 16.0 0.00 0.00 0.00 42 1008.8
20260504034423 55 1 9.0 15.0 0.00 0.00 0.00 42 1008.7
20260504033920 55 339 10.0 12.0 0.00 0.00 0.00 43 1008.4
20260504033418 56 343 10.0 13.0 0.00 0.00 0.00 42 1008.4
20260504032915 56 338 8.0 11.0 0.00 0.00 0.00 42 1008.3
20260504032411 56 4 5.0 11.0 0.00 0.00 0.00 42 1008.4
20260504031908 56 346 8.0 9.0 0.00 0.00 0.00 42 1008.0
20260504031405 56 6 7.0 9.0 0.00 0.00 0.00 42 1008.0
20260504030902 56 9 10.0 11.0 0.00 0.00 0.00 41 1008.4
20260504030359 57 14 8.0 12.0 0.00 0.00 0.00 40 1008.1
20260504025855 57 5 9.0 11.0 0.00 0.00 0.00 40 1007.8
20260504025352 57 10 6.0 11.0 0.00 0.00 0.00 40 1007.9
20260504024849 57 17 7.0 9.0 0.00 0.00 0.00 40 1007.9
20260504024345 58 24 8.0 13.0 0.00 0.00 0.00 40 1007.9
20260504023842 58 17 8.0 14.0 0.00 0.00 0.00 39 1007.8
20260504023339 59 32 8.0 15.0 0.00 0.00 0.00 39 1007.8
20260504022834 59 25 12.0 17.0 0.00 0.00 0.00 38 1007.6
20260504022332 59 36 11.0 18.0 0.00 0.00 0.00 38 1007.7
20260504021828 60 40 13.0 18.0 0.00 0.00 0.00 39 1007.7
20260504021326 60 37 14.0 19.0 0.00 0.00 0.00 38 1007.7
20260504020822 61 28 11.0 17.0 0.00 0.00 0.00 37 1007.6
20260504020319 62 47 12.0 19.0 0.00 0.00 0.00 36 1007.6
20260504015815 63 1 13.0 26.0 0.00 0.00 0.00 35 1007.6
20260504015311 63 19 15.0 24.0 0.00 0.00 0.00 34 1007.3
20260504014808 64 26 14.0 21.0 0.00 0.00 0.00 32 1007.5
20260504014304 65 13 18.0 21.0 0.00 0.00 0.00 31 1007.6
20260504013802 65 29 20.0 24.0 0.00 0.00 0.00 30 1007.1
20260504013259 66 25 7.0 20.0 0.00 0.00 0.00 31 1007.3
20260504012755 66 12 13.0 22.0 0.00 0.00 0.00 30 1007.3
20260504012254 67 9 11.0 18.0 0.00 0.00 0.00 28 1007.1
20260504011750 68 11 17.0 26.0 0.00 0.00 0.00 26 1007.1
20260504011247 69 31 17.0 21.0 0.00 0.00 0.00 27 1007.1
20260504010743 69 359 13.0 21.0 0.00 0.00 0.00 28 1007.1
20260504010238 69 13 13.0 20.0 0.00 0.00 0.00 28 1007.1
20260504005736 70 327 9.0 17.0 0.00 0.00 0.00 27 1006.8
20260504005233 70 314 10.0 16.0 0.00 0.00 0.00 24 1006.9
20260504004730 70 326 11.0 16.0 0.00 0.00 0.00 24 1007.0
20260504004227 70 348 15.0 20.0 0.00 0.00 0.00 24 1007.1
20260504003724 71 328 16.0 20.0 0.00 0.00 0.00 24 1007.1
20260504003221 71 0 10.0 21.0 0.00 0.00 0.00 25 1006.9
20260504002718 71 335 8.0 28.0 0.00 0.00 0.00 25 1007.4
20260504002214 71 328 11.0 17.0 0.00 0.00 0.00 24 1007.1
20260504001712 71 333 18.0 20.0 0.00 0.00 0.00 23 1007.1
20260504001209 71 329 14.0 15.0 0.00 0.00 0.00 22 1007.5
20260504000706 71 291 14.0 18.0 0.00 0.00 0.00 23 1007.8
20260504000204 71 329 9.0 19.0 0.00 0.00 0.00 24 1007.5
20260503235701 71 310 7.0 20.0 0.00 0.00 0.00 24 1007.5
20260503235157 71 342 18.0 23.0 0.00 0.00 0.00 24 1007.5
20260503234655 71 344 13.0 22.0 0.00 0.00 0.00 24 1007.9
20260503234154 71 316 12.0 19.0 0.00 0.00 0.00 24 1007.3
20260503233650 70 323 11.0 26.0 0.00 0.00 0.00 24 1007.6
20260503233145 70 358 6.0 18.0 0.00 0.00 0.00 24 1007.6
20260503232642 70 356 10.0 21.0 0.00 0.00 0.00 24 1007.6
20260503232139 72 357 23.0 25.0 0.00 0.00 0.00 24 1007.5
20260503231638 71 348 16.0 24.0 0.00 0.00 0.00 24 1007.7
20260503231133 71 334 14.0 25.0 0.00 0.00 0.00 23 1007.5
20260503230630 71 353 15.0 23.0 0.00 0.00 0.00 23 1007.6
20260503230128 71 300 12.0 24.0 0.00 0.00 0.00 23 1007.7
20260503225625 71 319 14.0 27.0 0.00 0.00 0.00 23 1007.7
20260503225124 71 285 17.0 28.0 0.00 0.00 0.00 23 1007.6
20260503224622 71 344 10.0 22.0 0.00 0.00 0.00 25 1007.8
20260503224120 71 336 20.0 27.0 0.00 0.00 0.00 24 1007.9
20260503223618 71 329 25.0 29.0 0.00 0.00 0.00 23 1007.8
20260503223113 72 328 15.0 23.0 0.00 0.00 0.00 24 1007.8
20260503222611 72 328 6.0 25.0 0.00 0.00 0.00 24 1008.0
20260503222109 71 0 20.0 25.0 0.00 0.00 0.00 24 1007.7
20260503221608 71 323 7.0 26.0 0.00 0.00 0.00 24 1008.0
20260503221105 71 334 20.0 30.0 0.00 0.00 0.00 24 1008.1
20260503220601 71 294 8.0 26.0 0.00 0.00 0.00 24 1008.1
20260503220058 71 299 13.0 20.0 0.00 0.00 0.00 23 1008.4
20260503215555 71 305 8.0 23.0 0.00 0.00 0.00 23 1008.1
20260503215051 70 268 5.0 19.0 0.00 0.00 0.00 25 1008.1
20260503214549 71 301 18.0 22.0 0.00 0.00 0.00 25 1008.5
20260503214046 71 304 11.0 21.0 0.00 0.00 0.00 24 1008.4
20260503213544 71 336 13.0 24.0 0.00 0.00 0.00 24 1008.6
20260503213041 71 332 6.0 23.0 0.00 0.00 0.00 25 1008.8
20260503212538 71 0 16.0 23.0 0.00 0.00 0.00 25 1008.7
20260503212036 71 328 22.0 23.0 0.00 0.00 0.00 23 1008.9
20260503211532 71 329 18.0 25.0 0.00 0.00 0.00 24 1008.8
20260503211028 71 317 12.0 29.0 0.00 0.00 0.00 24 1008.6
20260503210525 70 291 17.0 23.0 0.00 0.00 0.00 24 1008.8
20260503210021 71 316 10.0 25.0 0.00 0.00 0.00 24 1008.8
20260503205517 70 320 10.0 24.0 0.00 0.00 0.00 24 1008.8
20260503205014 69 281 5.0 15.0 0.00 0.00 0.00 25 1009.0
20260503204511 71 297 19.0 25.0 0.00 0.00 0.00 24 1009.3
20260503204008 70 350 8.0 19.0 0.00 0.00 0.00 26 1009.3
20260503203505 70 335 24.0 27.0 0.00 0.00 0.00 24 1009.1
20260503203002 69 319 16.0 28.0 0.00 0.00 0.00 25 1009.1
20260503202500 69 319 15.0 22.0 0.00 0.00 0.00 24 1009.4
20260503201958 70 1 12.0 26.0 0.00 0.00 0.00 26 1009.4
20260503201455 69 301 8.0 21.0 0.00 0.00 0.00 25 1009.4
20260503200952 69 336 15.0 19.0 0.00 0.00 0.00 25 1009.3
20260503200449 70 341 14.0 20.0 0.00 0.00 0.00 25 1009.5
20260503195945 69 324 21.0 26.0 0.00 0.00 0.00 24 1009.3
20260503195443 69 289 13.0 15.0 0.00 0.00 0.00 27 1009.4
20260503194939 69 337 13.0 20.0 0.00 0.00 0.00 26 1009.7
20260503194436 69 318 13.0 24.0 0.00 0.00 0.00 27 1009.7
20260503193931 69 320 14.0 19.0 0.00 0.00 0.00 26 1009.8
20260503193427 69 341 14.0 17.0 0.00 0.00 0.00 27 1010.2
20260503192923 68 302 9.0 21.0 0.00 0.00 0.00 28 1010.1
20260503192421 69 354 3.0 15.0 0.00 0.00 0.00 29 1010.2
20260503191916 67 351 9.0 22.0 0.00 0.00 0.00 27 1010.4
20260503191414 68 322 21.0 25.0 0.00 0.00 0.00 26 1010.2
20260503190909 65 329 18.0 25.0 0.00 0.00 0.00 28 1010.4
20260503190407 68 344 9.0 16.0 0.00 0.00 0.00 29 1010.5
20260503185903 68 321 11.0 22.0 0.00 0.00 0.00 28 1010.4
20260503185400 68 306 17.0 25.0 0.00 0.00 0.00 27 1010.6
20260503184859 67 302 11.0 21.0 0.00 0.00 0.00 28 1010.8
20260503184356 66 333 14.0 16.0 0.00 0.00 0.00 29 1010.8
20260503183852 67 7 8.0 18.0 0.00 0.00 0.00 29 1010.6
20260503183349 68 307 9.0 23.0 0.00 0.00 0.00 29 1011.0
20260503182846 66 355 11.0 17.0 0.00 0.00 0.00 32 1011.1
20260503182345 66 352 9.0 15.0 0.00 0.00 0.00 30 1011.0
20260503181842 66 275 7.0 14.0 0.00 0.00 0.00 30 1011.1
20260503181339 65 297 6.0 13.0 0.00 0.00 0.00 32 1011.2
20260503180835 67 324 11.0 14.0 0.00 0.00 0.00 32 1011.2
20260503180333 67 326 17.0 21.0 0.00 0.00 0.00 30 1011.2
20260503175829 66 344 8.0 12.0 0.00 0.00 0.00 30 1011.2
20260503175328 65 341 13.0 15.0 0.00 0.00 0.00 31 1011.4
20260503174823 66 307 8.0 19.0 0.00 0.00 0.00 30 1011.5
20260503174322 66 10 13.0 22.0 0.00 0.00 0.00 29 1011.5
20260503173817 66 289 5.0 15.0 0.00 0.00 0.00 29 1011.7
20260503173313 65 329 11.0 20.0 0.00 0.00 0.00 29 1011.8
20260503172810 65 305 12.0 20.0 0.00 0.00 0.00 30 1011.7
20260503172308 65 284 6.0 20.0 0.00 0.00 0.00 30 1011.9
20260503171803 66 8 10.0 18.0 0.00 0.00 0.00 28 1011.8
20260503171300 66 322 9.0 13.0 0.00 0.00 0.00 28 1011.9
20260503170758 64 294 7.0 13.0 0.00 0.00 0.00 31 1012.5
20260503170254 64 347 8.0 14.0 0.00 0.00 0.00 31 1012.0
20260503160217 62 288 12.0 23.0 0.00 0.00 0.00 34 1012.1
20260503150647 60 251 7.0 19.0 0.00 0.00 0.00 36 1012.0
20260503150143 60 289 15.0 20.0 0.00 0.00 0.00 36 1012.1
20260503140107 59 305 14.0 19.0 0.00 0.00 0.00 40 1012.5
20260503131036 57 288 10.0 18.0 0.00 0.00 0.00 45 1012.0
20260503130533 57 291 15.0 17.0 0.00 0.00 0.00 46 1012.0
20260503110424 49 165 2.0 3.0 0.00 0.00 0.00 59 1012.5
20260503090304 47 198 9.0 9.0 0.00 0.00 0.00 67 1013.0
20260503081236 48 163 8.0 10.0 0.00 0.00 0.00 64 1013.9
20260503080732 50 167 7.0 11.0 0.00 0.00 0.00 62 1014.0
20260503080229 50 140 8.0 12.0 0.00 0.00 0.00 61 1014.0
20260503072706 50 216 17.0 21.0 0.00 0.00 0.00 61 1014.3
20260503072203 49 223 14.0 18.0 0.00 0.00 0.00 63 1014.0
20260503071659 49 212 11.0 17.0 0.00 0.00 0.00 63 1014.0
20260503071156 48 201 10.0 16.0 0.00 0.00 0.00 64 1014.2
20260503070653 49 215 8.0 14.0 0.00 0.00 0.00 62 1014.3
20260503070151 49 227 9.0 15.0 0.00 0.00 0.00 63 1014.3
20260503060115 46 210 8.0 14.0 0.00 0.00 0.00 67 1014.6
20260503055107 45 191 8.0 12.0 0.00 0.00 0.00 69 1014.8
20260503054602 45 209 6.0 12.0 0.00 0.00 0.00 68 1014.8
20260503054100 45 204 8.0 11.0 0.00 0.00 0.00 67 1014.7
20260503053558 45 214 6.0 11.0 0.00 0.00 0.00 67 1014.9
20260503053055 46 204 11.0 13.0 0.00 0.00 0.00 65 1014.8
20260503052552 46 207 8.0 15.0 0.00 0.00 0.00 65 1014.9
20260503052048 46 192 8.0 12.0 0.00 0.00 0.00 66 1014.9
20260503051544 45 191 9.0 14.0 0.00 0.00 0.00 66 1014.7
20260503051042 45 207 9.0 13.0 0.00 0.00 0.00 66 1014.8
20260503050537 46 219 6.0 15.0 0.00 0.00 0.00 65 1015.1
20260503050035 46 206 10.0 12.0 0.00 0.00 0.00 63 1014.9
20260503045532 48 190 7.0 12.0 0.00 0.00 0.00 60 1015.2
20260503045029 49 208 6.0 11.0 0.00 0.00 0.00 58 1015.0
20260503044526 50 203 7.0 10.0 0.00 0.00 0.00 57 1015.1
20260503044024 48 198 5.0 18.0 0.00 0.00 0.00 60 1015.2
20260503043519 46 210 10.0 13.0 0.00 0.00 0.00 62 1014.9
20260503043016 46 205 5.0 8.0 0.00 0.00 0.00 61 1014.9
20260503042513 47 186 5.0 9.0 0.00 0.00 0.00 60 1015.0
20260503042009 48 194 6.0 9.0 0.00 0.00 0.00 60 1015.0
20260503041507 47 199 8.0 10.0 0.00 0.00 0.00 60 1014.8
20260503041004 47 199 6.0 10.0 0.00 0.00 0.00 61 1014.9
20260503040501 48 177 6.0 9.0 0.00 0.00 0.00 59 1015.2
20260503035958 50 200 7.0 7.0 0.00 0.00 0.00 56 1014.7